Weather in Sabha

Libya     27°02′04″N   14°25′34″E
temp.,
°C
wind,
m/s
gust,
m/s
humid.,
%
clouds,
%
prec.,
mm/h
press.,
hPa
HPBL,
m
5 march, fri
fri523:00+16ese6102694 0.0 1018166
02:00+14se7143180 0.0 1017268
05:00+13se1017320 0.0 1016340
08:00+12se1017310 0.0 1016338
11:00+20sse79170 0.0 1017684
14:00+28ssw810100 0.0 10131424
17:00+29ssw6990 0.0 10112104
20:00+21w35140 0.0 101237
6 march, sat
sat623:00+17nw34160 0.0 101523
02:00+16ene34170 0.0 101523
05:00+15nne23200 0.0 101523
08:00+15nne34180 0.0 101725
11:00+24n45110 0.0 1019414
14:00+28n4380 0.0 10171226
17:00+29nnw3380 0.0 10151683
20:00+19nnw12150 0.0 101624
7 march, sun
sun723:00+19ene34160 0.0 101823
02:00+18ene56170 0.0 101738
05:00+16e45180 0.0 101625
08:00+17ese45170 0.0 101738
11:00+27se4580 0.0 1017616
14:00+33s6770 0.0 10141819
17:00+34sw7870 0.0 10103164
20:00+27s57110 0.0 101042
8 march, mon
mon823:00+25s67130 0.0 101187
02:00+24s711140 0.0 1010115
05:00+22ssw7101616 0.0 1009106
08:00+22ssw9131527 0.0 1009214
11:00+31wsw9101152 0.0 10111050
14:00+34w8121160 0.0 10083730
17:00+33wnw91014100 0.0 10072854
20:00+28nw7141996 0.0 1008285
9 march, tue
tue923:00+24nw453482 0.0 101059
02:00+21nw234184 0.0 101023
05:00+22s563766 0.0 100959
08:00+20ssw454067 0.0 101080
11:00+28wsw662366 0.0 1012983
14:00+32w7101752 0.0 10092196
17:00+31wnw8121588 0.0 10082299
20:00+24nnw351965 0.0 101024